This is the latest recevied weather packets stored in our database for station/object KE8ZLU. If no packets are shown the sender has not sent any weather packets the latest 1 day(s).
| Time | Temp. | Humidity | Pressure | Rain* | Wind** | Luminosity | Snow |
|---|---|---|---|---|---|---|---|
| 1778028101 | 9.44° C | 56% | 1009.7 hPa | 0 mm | - | 2 W/m² | - |
| 1778027797 | 9.44° C | 55% | 1009.7 hPa | 0 mm | - | 3 W/m² | - |
| 1778027493 | 9.44° C | 56% | 1009.9 hPa | 0 mm | - | 4 W/m² | - |
| 1778027189 | 9.44° C | 54% | 1009.9 hPa | 0 mm | - | 4 W/m² | - |
| 1778026886 | 9.44° C | 54% | 1009.8 hPa | 0 mm | - | 5 W/m² | - |
| 1778026279 | 9.44° C | 55% | 1009.9 hPa | 0 mm | - | 7 W/m² | - |
| 1778025372 | 10° C | 54% | 1009.7 hPa | 0 mm | - | 11 W/m² | - |
| 1778024462 | 10° C | 53% | 1009.8 hPa | 0 mm | - | 12 W/m² | - |
| 1778023857 | 10° C | 53% | 1009.8 hPa | 0 mm | - | 16 W/m² | - |
| 1778023555 | 10° C | 52% | 1009.6 hPa | 0 mm | - | 26 W/m² | - |
| 1778021131 | 10.56° C | 50% | 1009.6 hPa | 0 mm | - | 58 W/m² | - |
| 1778020828 | 10.56° C | 48% | 1009.4 hPa | 0 mm | - | 62 W/m² | - |
| 1778020525 | 10.56° C | 48% | 1009.4 hPa | 0 mm | - | 73 W/m² | - |
| 1778019008 | 11.11° C | 47% | 1009.5 hPa | 0 mm | - | 97 W/m² | - |
| 1778017798 | 11.11° C | 45% | 1009.4 hPa | 0 mm | - | 118 W/m² | - |
| 1778017496 | 11.67° C | 43% | 1009.3 hPa | 0 mm | - | 121 W/m² | - |
| 1778015071 | 11.67° C | 50% | 1009.5 hPa | 0 mm | - | 96 W/m² | - |
| 1778013860 | 11.67° C | 52% | 1009.4 hPa | 0 mm | - | 139 W/m² | - |
| 1778012950 | 11.11° C | 48% | 1009.5 hPa | 0 mm | - | 123 W/m² | - |
| 1778012646 | 11.67° C | 51% | 1009.5 hPa | 0 mm | - | 120 W/m² | - |
| 1778012343 | 11.67° C | 50% | 1009.5 hPa | 0 mm | - | 171 W/m² | - |
| 1778012040 | 11.67° C | 53% | 1009.6 hPa | 0 mm | - | 167 W/m² | - |
| 1778011435 | 11.11° C | 52% | 1009.4 hPa | 0 mm | - | 229 W/m² | - |
| 1778010828 | 11.11° C | 54% | 1009.4 hPa | 0 mm | - | 111 W/m² | - |
* Rain latest hour (hover to see other rain measurements)
** Current wind speed in m/s (hover to see current wind gust speed)